Tracking 19905 objects as of 17-Oct-2019
HD Live streaming from Space Station
objects crossing your sky now

SL-8 R/B

Track SL-8 R/B now!
10-day predictions


NORAD ID: 10992
Int'l Code: 1978-074B
Perigee: 965.3 km
Apogee: 991.6 km
Inclination: 82.9 °
Period: 104.5 minutes
Semi major axis: 7349 km
RCS: 4.7594 m2 (large)
Launch date: July 27, 1978
Source: Commonwealth of Independent States (former USSR) (CIS)
Launch site: PLESETSK MISSILE AND SPACE COMPLEX (PKMTR)

Note: This is a ROCKET BODY
aabbcc
Your satellite tracking list
Your tracking list is empty




NASA's NSSDC Master Catalog

Two Line Element Set (TLE):
1 10992U 78074B   19288.73950756  .00000067  00000-0  52094-4 0  9994
2 10992  82.9368   0.7153 0017927 263.1119 211.0790 13.77908356 71988
Source of the keplerian elements: AFSPC